Weather History for CWGB - February, 2014

Change the Weather History Date:

Tuesday, February 18, 2014

  Actual Average Record
Temperature  
Mean Temperature 42 °F -  
Max Temperature 45 °F - - ()
Min Temperature 39 °F - - ()
Degree Days  
Heating Degree Days 23    
Moisture  
Dew Point 36 °F    
Average Humidity 78    
Maximum Humidity 88    
Minimum Humidity 55    
Precipitation  
Precipitation 0.08 in - - ()
Sea Level Pressure  
Sea Level Pressure 29.61 in    
Wind  
Wind Speed 14 mph ()    
Max Wind Speed 32 mph    
Max Gust Speed 39 mph    
T = Trace of Precipitation, MM = Missing Value Source: Averaged Metar Reports

Daily Weather History Graph

Daily Weather History Graph

Search for Another Location

Airport or City:

Trip Planner

Search our weather history database for the weather conditions in past years. The results will help you decide how hot, cold, wet, or windy it might be!

Date:

Astronomy

Feb. 18, 2014 Rise Set
Actual Time 7:20 AM PST 5:41 PM PST
Civil Twilight 6:47 AM PST 6:14 PM PST
Nautical Twilight 6:10 AM PST 6:51 PM PST
Astronomical Twilight 5:33 AM PST 7:28 PM PST
Moon 10:06 PM PST (2/18) 8:32 AM PST (2/18)
Length of Visible Light 11h 27m
Length of Day
10h 21m
Waning Gibbous, 86% of the Moon is Illuminated
Feb 18
Waning Gibbous
Feb 22
Last Quarter
Mar 1
New
Mar 8
First Quarter
Mar 16
Full

Hourly Weather History & Observations

Time (PST) Temp. Windchill Dew Point Humidity Pressure Visibility Wind Dir Wind Speed Gust Speed Precip Events Conditions
12:00 AM 42.3 °F 37.3 °F 34.9 °F 75% 29.83 in - SE 8.1 mph - N/A   Unknown
1:00 AM 41.0 °F 37.1 °F 34.0 °F 76% 29.83 in - SE 5.8 mph - N/A   Unknown
2:00 AM 40.5 °F 34.1 °F 34.5 °F 79% 29.83 in - ESE 10.4 mph - N/A   Unknown
3:00 AM 41.2 °F 38.2 °F 34.2 °F 76% 29.82 in - SE 4.6 mph - 0.01 in   Unknown
4:00 AM 41 °F - 37 °F 80% 29.79 in - ESE 19.6 mph - -  
4:00 AM 41.4 °F 32.4 °F 36.9 °F 84% 29.79 in - ESE 19.6 mph - N/A   Unknown
5:00 AM 41.4 °F 32.7 °F 37.6 °F 86% 29.75 in - ESE 18.4 mph - N/A   Unknown
6:00 AM 42.3 °F 31.6 °F 38.3 °F 86% 29.70 in - ESE 29.9 mph 36.8 mph 0.01 in   Unknown
7:00 AM 42.1 °F 31.0 °F 38.5 °F 87% 29.65 in - ESE 32.2 mph 39.1 mph 0.03 in   Unknown
8:00 AM 41.5 °F 30.6 °F 37.6 °F 86% 29.62 in - ESE 29.9 mph 39.1 mph 0.01 in   Unknown
9:00 AM 41.2 °F 30.9 °F 37.8 °F 88% 29.58 in - ESE 25.3 mph 32.2 mph 0.01 in   Unknown
10:00 AM 43 °F - 39 °F 82% 29.53 in - SE 19.6 mph - -  
10:00 AM 42.6 °F 34.0 °F 39.4 °F 88% 29.53 in - SE 19.6 mph 31.1 mph 0.02 in   Unknown
11:00 AM 41.9 °F 32.8 °F 38.5 °F 88% 29.49 in - ESE 20.7 mph 26.5 mph 0.02 in   Unknown
12:00 PM 42.1 °F 34.9 °F 38.5 °F 87% 29.44 in - ESE 13.8 mph 19.6 mph 0.01 in   Unknown
1:00 PM 41.4 °F - 38.1 °F 88% 29.43 in - SE 2.3 mph - 0.02 in   Unknown
2:00 PM 44.4 °F - 40.8 °F 87% 29.40 in - ENE 1.2 mph - 0.02 in   Unknown
3:00 PM 45.0 °F 42.6 °F 38.5 °F 78% 29.40 in - South 4.6 mph - N/A   Unknown
4:00 PM 44 °F - 38 °F 71% 29.44 in - WSW 18.4 mph - -  
4:00 PM 43.5 °F 35.5 °F 37.6 °F 80% 29.44 in - WSW 18.4 mph - 0.01 in   Unknown
5:00 PM 44.2 °F 34.2 °F 36.1 °F 73% 29.46 in - West 29.9 mph - N/A   Unknown
6:00 PM 44.2 °F 34.4 °F 34.9 °F 70% 29.52 in - West 28.8 mph - N/A   Unknown
7:00 PM 42.8 °F 33.3 °F 34.9 °F 74% 29.57 in - West 24.2 mph - N/A   Unknown
8:00 PM 43.5 °F 35.2 °F 32.9 °F 66% 29.62 in - WNW 19.6 mph 25.3 mph N/A   Unknown
9:00 PM 43.2 °F 35.9 °F 32.9 °F 67% 29.65 in - West 15.0 mph - N/A   Unknown
10:00 PM 42 °F - 31 °F 55% 29.68 in - WSW 18.4 mph - -  
10:00 PM 41.7 °F 33.1 °F 31.3 °F 66% 29.68 in - WSW 18.4 mph 26.5 mph N/A   Unknown
11:00 PM 42.1 °F 34.9 °F 31.8 °F 67% 29.71 in - West 13.8 mph - N/A   Unknown